TimeEDT,TemperatureF,Dew PointF,Humidity,Sea Level PressureIn,VisibilityMPH,Wind Direction,Wind SpeedMPH,Gust SpeedMPH,PrecipitationIn,Events,Conditions,WindDirDegrees,DateUTC
12:51 AM,72.0,64.9,78,29.97,7.0,West,8.1,-,N/A,,Clear,260,2013-05-17 04:51:00
1:51 AM,72.0,64.0,76,29.97,8.0,WSW,6.9,-,N/A,,Clear,250,2013-05-17 05:51:00
2:51 AM,72.0,64.0,76,29.97,7.0,West,6.9,-,N/A,,Clear,260,2013-05-17 06:51:00
3:51 AM,73.0,64.9,76,29.97,10.0,West,6.9,-,N/A,,Clear,270,2013-05-17 07:51:00
4:51 AM,72.0,64.9,78,29.98,10.0,West,5.8,-,N/A,,Clear,260,2013-05-17 08:51:00
5:51 AM,72.0,66.0,81,30.01,10.0,West,6.9,-,N/A,,Clear,280,2013-05-17 09:51:00
6:51 AM,72.0,66.0,81,30.03,10.0,WNW,5.8,-,N/A,,Clear,300,2013-05-17 10:51:00
7:51 AM,73.0,66.0,79,30.05,9.0,WNW,6.9,-,N/A,,Clear,300,2013-05-17 11:51:00
8:51 AM,73.9,64.9,73,30.06,10.0,Variable,4.6,-,N/A,,Clear,0,2013-05-17 12:51:00
9:51 AM,75.0,64.0,69,30.06,10.0,NNW,4.6,-,N/A,,Clear,340,2013-05-17 13:51:00
10:51 AM,77.0,62.1,60,30.08,10.0,NNW,6.9,-,N/A,,Clear,340,2013-05-17 14:51:00
11:51 AM,79.0,64.0,60,30.09,10.0,Variable,4.6,-,N/A,,Clear,0,2013-05-17 15:51:00
12:51 PM,79.0,60.1,52,30.09,10.0,NNE,5.8,-,N/A,,Clear,20,2013-05-17 16:51:00
1:51 PM,81.0,59.0,47,30.09,10.0,Variable,5.8,-,N/A,,Clear,0,2013-05-17 17:51:00
2:51 PM,81.0,61.0,50,30.08,10.0,SE,9.2,-,N/A,,Clear,130,2013-05-17 18:51:00
3:51 PM,78.1,62.1,58,30.08,10.0,ESE,9.2,-,N/A,,Clear,120,2013-05-17 19:51:00
4:51 PM,78.1,63.0,60,30.08,10.0,SE,5.8,-,N/A,,Clear,140,2013-05-17 20:51:00
5:51 PM,75.9,64.0,67,30.09,10.0,SE,4.6,-,N/A,,Clear,140,2013-05-17 21:51:00
6:51 PM,75.0,62.1,64,30.09,10.0,ENE,6.9,-,N/A,,Clear,60,2013-05-17 22:51:00
7:51 PM,72.0,64.0,76,30.11,10.0,ENE,4.6,-,N/A,,Clear,60,2013-05-17 23:51:00
8:51 PM,69.1,64.0,84,30.12,10.0,ENE,3.5,-,N/A,,Clear,70,2013-05-18 00:51:00
9:51 PM,68.0,64.0,87,30.13,10.0,Calm,Calm,-,N/A,,Clear,0,2013-05-18 01:51:00
10:51 PM,69.1,64.0,84,30.14,10.0,Calm,Calm,-,N/A,,Clear,0,2013-05-18 02:51:00
11:51 PM,69.1,64.0,84,30.16,8.0,Calm,Calm,-,N/A,,Clear,0,2013-05-18 03:51:00